OpenBCM V1.07b12 (Linux)

Packet Radio Mailbox

DB0FHN

[JN59NK Nuernberg]

 Login: GUEST





  
I0OJJ  > KEPS     07.02.25 06:08l 331 Lines 15738 Bytes #999 (0) @ AMSAT
BID : ORB25038.1
Read: DJ6UX GUEST
Subj: 2Line Orbital Elements 25038.AMSAT
Path: DB0FHN<DB0FFL<OE5XBL<OE6XPE<DB0ERF<DK0WUE<DK0WUE<VK5RSV<PI8ZTM<I0OJJ
Sent: 250207/0345z @:I0OJJ.ITA.EU [Rome] obcm1.08-6-g5b69
From: I0OJJ @ I0OJJ.ITA.EU (Gustavo)
To:   KEPS @ AMSAT
X-Info: This message was generated automatically


QST de W1STR

AMSAT Orbital Elements for Amateur Satellites in TLE Format
From Orbital Analysis Office
New England Sci-Tech STEM Education Center
Natick, MA February 07, 2025
To all radio amateurs


These element sets describe the orbits of various satellites 
in use by the amateur radio community. For details see:
www.amsat.org/keplerian-elements-formats/

A daily update of element sets is available at:
www.amsat.org/tle/daily-bulletin.txt
or without bulletin text:
www.amsat.org/tle/dailytle.txt


AO-07
1 07530U 74089B   25037.60877667 -.00000014  00000-0  20120-3 0  9991
2 07530 101.9930  40.5650 0012179 358.2251 117.7015 12.53685806298416
UO-11
1 14781U 84021B   25037.76458319  .00003214  00000-0  35026-3 0  9995
2 14781  97.7381   6.7410 0008691  33.2623 326.9139 14.88641517204362
AO-27
1 22825U 93061C   25037.69627967  .00000278  00000-0  12354-3 0  9992
2 22825  98.7559  98.5432 0009437 111.0172 249.2020 14.30723943636416
FO-29
1 24278U 96046B   25037.72242695  .00000037  00000-0  76749-4 0  9999
2 24278  98.5877 307.7102 0349129 300.9455  55.7806 13.53236330406407
NOAA-15
1 25338U 98030A   25037.82038983  .00000399  00000-0  18219-3 0  9994
2 25338  98.5490  65.8309 0010212   4.9446 355.1834 14.26877073390895
GO-32
1 25397U 98043D   25037.47339215  .00000282  00000-0  14211-3 0  9995
2 25397  98.9559  14.1211 0001277 155.5893 204.5346 14.24248949380761
ISS
1 25544U 98067A   25037.96095632  .00015139  00000-0  27395-3 0  9995
2 25544  51.6373 232.0378 0003474 282.9273 192.9924 15.49869763494969
NO-44
1 26931U 01043C   25037.48485797  .00000448  00000-0  19896-3 0  9990
2 26931  67.0503  86.0796 0006088 263.4213  96.6196 14.31610353219481
SO-50
1 27607U 02058C   25037.75049639  .00002801  00000-0  37464-3 0  9995
2 27607  64.5526 219.4923 0041460   5.4195 354.7349 14.80905617191244
CO-55
1 27844U 03031E   25037.56914908  .00000821  00000-0  37788-3 0  9998
2 27844  98.6788  47.4259 0009675 178.1717 181.9499 14.23806858121137
CO-57
1 27848U 03031J   25037.46108470  .00000707  00000-0  33212-3 0  9991
2 27848  98.6815  47.4158 0009245 195.5019 164.5878 14.23169201120851
RS-22
1 27939U 03042A   25037.85433023  .00002739  00000-0  44701-3 0  9994
2 27939  98.3126 204.4718 0012279  42.3273  63.5326 14.71721165142770
NOAA-18
1 28654U 05018A   25037.74353406  .00000401  00000-0  23625-3 0  9994
2 28654  98.8529 118.5685 0015128 117.3694 242.9020 14.13508760 16393
CO-58
1 28895U 05043F   25037.36818301  .00003751  00000-0  63143-3 0  9997
2 28895  98.2277 180.3955 0014546 340.8373  19.2284 14.70101266 29069
CO-65
1 32785U 08021C   25037.80742238  .00010114  00000-0  77431-3 0  9999
2 32785  97.7662   8.3691 0008764 270.2049  89.8171 15.02044673910703
AAUSAT2
1 32788U 08021F   25037.45642944  .00096892  00000-0  19477-2 0  9998
2 32788  97.6056  28.7397 0007474  85.8446 274.3657 15.46252273914124
CO-66
1 32791U 08021J   25037.44327043  .00019058  00000-0  10629-2 0  9990
2 32791  97.7169  15.2591 0003006 195.6503 164.4636 15.13615369911836
RS-30
1 32953U 08025A   25037.75150075  .00000019  00000-0  64544-4 0  9991
2 32953  82.5047 303.5907 0019144 316.3271  43.6294 12.43158355758273
NOAA-19
1 33591U 09005A   25037.58838722  .00000369  00000-0  22074-3 0  9991
2 33591  99.0153 101.5212 0013509 355.2156   4.8884 14.13278890824736
SRMSAT
1 37841U 11058D   25037.58566072  .00000682  00000-0  22728-3 0  9994
2 37841  19.9706 178.8002 0011717 151.5847 292.8006 14.11355563687935
ZACUBE-1
1 39417U 13066B   25037.82591341  .00009707  00000-0  88561-3 0  9994
2 39417  97.7646 355.7865 0048317 101.4215 259.2438 14.94395978606566
Delfi-N3xt
1 39428U 13066N   25037.76106356  .00014173  00000-0  15364-2 0  9990
2 39428  97.8369 317.0287 0091211  45.1098 315.7475 14.85250067601006
GOMX-1
1 39430U 13066Q   25037.80228189  .00004795  00000-0  76142-3 0  9998
2 39430  97.7007 263.9373 0133350 224.8324 134.2048 14.66735104597408
LO-74
1 39440U 13066AA  25037.77675708  .00007435  00000-0  78594-3 0  9995
2 39440  97.8367 343.4435 0063000 223.6594 135.9630 14.88037084604367
AO-73
1 39444U 13066AE  25037.67885423  .00012798  00000-0  10393-2 0  9995
2 39444  97.7483 359.6428 0043497  78.8509 281.7599 14.99001631605742
DTUSAT-2
1 40030U 14033W   25037.78012459  .00013198  00000-0  92830-3 0  9998
2 40030  98.0409   4.0348 0011632 111.4672 248.7794 15.05160691578413
EO-80
1 40032U 14033Y   25037.80723753  .00012198  00000-0  85662-3 0  9993
2 40032  98.0295   3.8841 0010981  63.0484 297.1861 15.05247034578401
XW-2C
1 40906U 15049H   25037.76059864  .00701445  23381-3  12341-2 0  9994
2 40906  97.4426  72.5975 0004009 163.2245 196.9168 16.02057203521042
LILACSAT-2
1 40908U 15049K   25037.81945702  .00016028  00000-0  47953-3 0  9991
2 40908  97.5174  55.4957 0008479 233.2871 126.7593 15.34601910519373
IO-86
1 40931U 15052B   25029.03811298  .00001879  00000-0  16388-3 0  9994
2 40931   5.9985 178.0957 0012329  44.5838 315.5281 14.78544596504930
Horyu-4
1 41340U 16012D   25036.91960400  .00030108  00000-0  10300-2 0  9995
2 41340  30.9975 238.9381 0005985 219.3457 140.6752 15.29044444493793
Lapan A3
1 41603U 16040E   25037.74385266  .00005819  00000-0  21259-3 0  9998
2 41603  97.1398  47.2726 0011052 357.9633   2.1560 15.28412674479011
CAS-2T
1 41847U 16066G   25037.62366389  .00003619  00000-0  52537-3 0  9997
2 41847  98.4337 113.1378 0348275 190.1422 169.2615 14.42871663433284
CAS-4B
1 42759U 17034B   25037.83828282  .00049322  00000-0  96006-3 0  9994
2 42759  43.0127 324.2249 0015707 160.0177 200.1300 15.46678402423495
CAS-4A
1 42761U 17034D   25037.74132604  .00049059  00000-0  94056-3 0  9993
2 42761  43.0164 322.7658 0017105 165.7549 194.3795 15.47093431423491
TechnoSat
1 42829U 17042E   25037.45537971  .00005769  00000-0  46486-3 0  9995
2 42829  97.3905 212.1330 0012349 354.1477   5.9601 15.00226376412259
AO-91
1 43017U 17073E   25037.58311594  .00014850  00000-0  80919-3 0  9994
2 43017  97.5494 271.5611 0181688 225.0302 133.6073 15.01386801390732
S-Net D
1 43186U 18014G   25037.71093023  .00008818  00000-0  55131-3 0  9991
2 43186  97.5739 301.9710 0007710 292.5695  67.4718 15.09646290383827
S-Net B
1 43187U 18014H   25037.71490212  .00008880  00000-0  55533-3 0  9998
2 43187  97.5746 301.9404 0008341 286.2396  73.7915 15.09632436383821
S-Net A
1 43188U 18014J   25037.31400418  .00008809  00000-0  55076-3 0  9997
2 43188  97.5752 301.6792 0008226 288.8635  71.1702 15.09643800383768
S-Net C
1 43189U 18014K   25037.71702866  .00009102  00000-0  56896-3 0  9992
2 43189  97.5768 302.0706 0009720 277.4478  82.5646 15.09631217382373
Ten-Koh
1 43677U 18084G   25037.52510295  .00005602  00000-0  46331-3 0  9997
2 43677  98.0824 204.9223 0011664 317.9072  42.1253 14.99297575341798
PO-101
1 43678U 18084H   25037.73810546  .00003288  00000-0  28926-3 0  9991
2 43678  98.0908 209.3194 0008161 340.6310  19.4599 14.97245647341997
QO-100
1 43700U 18090A   25037.76048594  .00000142  00000-0  00000+0 0  9998
2 43700   0.0108 115.6692 0001263 200.5467 120.4161  1.00270321 22950
MinXSS-2
1 43758U 18099A   25037.73274635  .00022589  00000-0  10535-2 0  9990
2 43758  97.5208 103.7652 0012686 224.6839 135.3374 15.19801178338271
AO-95
1 43770U 18099N   25037.71419033  .00015025  00000-0  84012-3 0  9994
2 43770  97.5120  97.3411 0010556 279.7534  80.2505 15.13527952337942
RANGE-A
1 43773U 18099R   25037.59629073  .00007789  00000-0  52213-3 0  9996
2 43773  97.4694  89.5944 0010231 251.4561 108.5555 15.07091552337686
MOVE-II
1 43780U 18099Y   25037.73627384  .00072135  00000-0  17528-2 0  9999
2 43780  97.4855 107.7572 0003934 231.9395 128.1496 15.40726323338707
SNUSat 2
1 43782U 18099AA  25037.61208574  .00011162  00000-0  66168-3 0  9992
2 43782  97.4808  94.9388 0011998 213.5864 146.4607 15.11481627337906
SnugLite
1 43784U 18099AC  25037.57123573  .00015144  00000-0  84089-3 0  9990
2 43784  97.4620  94.2630 0003077 208.1844 151.9222 15.13816774338003
ITASat 1
1 43786U 18099AE  25037.56429723  .00011232  00000-0  68835-3 0  9992
2 43786  97.4775  94.7256 0013985 270.9229  89.0399 15.10250597337870
EAGLET 1
1 43790U 18099AJ  25037.68196440  .00007125  00000-0  47628-3 0  9990
2 43790  97.4973  95.1331 0011089 248.2374 111.7674 15.07222386337540
ESEO
1 43792U 18099AL  25037.70829522  .00002861  00000-0  22399-3 0  9999
2 43792  97.4632  89.9970 0009822 207.2491 152.8220 15.01751562337372
CSIM
1 43793U 18099AM  25037.72274712  .00077782  00000-0  18894-2 0  9995
2 43793  97.5032 109.7016 0007346 207.9094 152.1759 15.40692719338546
JO-97
1 43803U 18099AX  25037.71272695  .00017865  00000-0  92293-3 0  9996
2 43803  97.4867  98.1405 0007619 207.5673 152.5157 15.16324768338127
Suomi 100
1 43804U 18099AY  25036.69617947  .00015823  00000-0  85968-3 0  9999
2 43804  97.4936  96.7237 0012673 214.3351 145.7063 15.14520828337927
ISAT
1 43879U 18111D   25037.72594992  .00026429  00000-0  11320-2 0  9999
2 43879  97.6040 309.9852 0007778 269.7161  90.3183 15.22732020332934
UWE-4
1 43880U 18111E   25036.97726814  .00024799  00000-0  11463-2 0  9993
2 43880  97.5975 308.4389 0011419 285.8504  74.1471 15.20105194334811
Sparrow
1 43881U 18111F   25037.33323643  .00027397  00000-0  11446-2 0  9996
2 43881  97.6159 312.0441 0006416 325.7596  34.3226 15.23578452334970
Prox-1
1 44339U 19036A   25037.68259574  .00017750  00000-0  24952-2 0  9999
2 44339  23.9967 146.7161 0008534 109.3040 250.8380 14.75766141299901
SONATE
1 44400U 19038Q   25037.56281935  .00072198  00000-0  97008-3 0  9993
2 44400  97.7105  51.7484 0009161 359.3519   0.7722 15.57623718310247
